Regional Weather Roundup
Issued by NWS Portland, ME

Home | Current Version | Previous Version | Text Only | Print | Product List | Glossary On
Versions: 1 2 3 4 5 6 7 8 9 10 11 12 13 14 15 16 17 18 19 20 21 22 23 24 25 26 27 28 29 30 31 32 33 34 35 36 37 38 39 40 41 42 43 44 45 46 47 48 49 50
000
ASUS41 KGYX 280110
RWRGYX
WEATHER ROUNDUP FOR MAINE AND NEW HAMPSHIRE
NATIONAL WEATHER SERVICE GRAY ME
800 PM EST SAT DEC 27 2014

MEZ002-005-006-010-012-015-018-020-021-024-026-027-029-280200-
MAINE

CITY           SKY/WX    TMP DP  RH WIND       PRES   REMARKS
PORTLAND       PTCLDY    38  31  76 CALM      30.10S
SANFORD        PTCLDY    28  25  86 CALM      30.10S
BAR HARBOR     CLEAR     30  30 100 CALM      30.08F
WISCASSET      PTCLDY    30  28  92 CALM      30.11R
ROCKLAND       CLEAR     32  30  93 CALM      30.09R
FRYEBURG       CLOUDY    35  29  78 SW5       30.07F
LEWISTONAUBURN CLEAR     28  25  86 CALM      30.08S
AUGUSTA        CLOUDY    36  28  73 CALM      30.07F
WATERVILLE     CLOUDY    36  27  69 CALM      30.04F
BANGOR         PTCLDY    31  27  85 CALM      30.07F
GREENVILLE       N/A     34  28  79 CALM      29.97F
MILLINOCKET    CLOUDY    38  29  70 CALM      30.04F
HOULTON        MOCLDY    33  24  69 S6        30.01F
PRESQUE ISLE   PTCLDY    32  19  59 W3        29.99F
FRENCHVILLE    CLOUDY    26  17  68 N5        29.96F
CARIBOU        CLOUDY    31  18  58 CALM      29.98F
$$

NHZ002-005-008-009-011-012-014-280200-
NEW HAMPSHIRE

CITY           SKY/WX    TMP DP  RH WIND       PRES   REMARKS
PORTSMOUTH     MOCLDY    35  30  80 CALM      30.10S
ROCHESTER      PTCLDY    38  30  73 CALM      30.09S
NASHUA         PTCLDY    35  32  89 CALM      30.12S
MANCHESTER     CLOUDY    36  31  82 CALM      30.09S
CONCORD        PTCLDY    30  28  92 CALM      30.10S
PLYMOUTH       MOCLDY    32  32 100 CALM      30.07F
BERLIN         CLOUDY    34  29  82 SE3       30.02F
WHITEFIELD     CLOUDY    35  30  82 CALM      30.02F
JAFFREY        PTCLDY    32  30  92 S5        30.09S
KEENE          PTCLDY    32  30  93 CALM      30.10F
LEBANON        MOCLDY    32  29  88 CALM      30.06F
MT WASHINGTON  FOG       25  25 100 W53         N/A  VSB 0   WCI   4
$$

VTZ005-007-008-280200-
VERMONT

CITY           SKY/WX    TMP DP  RH WIND       PRES   REMARKS
ST JOHNSBURY     N/A     38  32  79 MISG      30.01F
MONTPELIER     CLOUDY    39  32  76 S5        30.04F
BURLINGTON     LGT RAIN  45  33  63 S15G23    29.98F
$$

MAZ007-012-024-CTZ003-RIZ002-NYZ038-NYZ072-280200-
SOUTHERN NEW ENGLAND AND NY

CITY           SKY/WX    TMP DP  RH WIND       PRES   REMARKS
BOSTON         MOCLDY    45  34  65 SW9       30.13S
WORCESTER      CLEAR     38  31  76 SW9       30.11R
NANTUCKET      PTCLDY    44  40  85 W8        30.16S
PROVIDENCE     MOCLDY    42  32  67 SW6       30.15S
HARTFORD       MOCLDY    43  32  65 S6        30.12S
ALBANY         MOCLDY    46  33  60 S10       30.07F
NEW YORK CITY  MOCLDY    48  38  68 S7        30.15F
$$

ANZ081-ANZ082-ANZ150-NHZ014-MEZ023>029-280200-
COASTAL MARINE OBSERVATIONS

STATION/POSITION TIME  TEMP    WIND        PRES    WAVE
                       AIR SEA DIR/SP/G            HT/PER
                 (UTC) (F)     (DEG/KT/KT) (MB)    (FT/S)
MOUNT DESERT ROC 0100   45                 1018.6R
MATINICUS ROCK   0100          250/ 11/ 11 1018.8R
PORTLAND WX BUOY 0050   43 42  250/  8/  8 1019.4R   2/13
WELLS            0000   36 42   10/  2/  3 1018.5S
ISLE OF SHOALS   0100   46     250/  7/  7 1018.9S
JEFFREYS LEDGE   0021      48                N/A     3/13
CASHES LEDGE BUO 0050   48 48  230/ 14/ 16 1019.1R   3/13
$$

.............KEY..............
   WCI - WIND CHILL
   TC  - TEMPERATURE IN CELSIUS
   VSB - VISIBILITY IN MILES
   HX  - HEAT INDEX
   FAIR- INDICATES FEW OR NO CLOUDS BELOW 12,000 FT, WITH NO
         SIGNIFICANT WEATHER AND/OR OBSTRUCTIONS TO VISIBILITY.





USA.gov is the U.S. government's official web portal to all federal, state and local government web resources and services.